Visibility
15.0 14.0 14.4 15.0 15.0 14.0 14.9 15.0 15.0 15.0 15.0 15.0 15.0 15.0 15.0 15.0 15.0 15.0 15.0 15.0 15.0 15.0 15.0 15.0 15.0 15.0 15.0 15.0 15.0 15.0 15.0 15.0 15.0 15.0 15.0 15.0 15.0 15.0 15.0 15.0 15.0 15.0 15.0 15.0 15.0 15.0 15.0 15.0 15.0 15.0 15.0 15.0 15.0 15.0
15.0 15.0 15.0 15.0 15.0 15.0 15.0 15.0 15.0 15.0 15.0 15.0 15.0 15.0 15.0 15.0 15.0 15.0 15.0 15.0 15.0 15.0 15.0 15.0 15.0 15.0 15.0 15.0 15.0 15.0 15.0 15.0 15.0 15.0 15.0 15.0 15.0 15.0 15.0 15.0 15.0 15.0 15.0 15.0 15.0 15.0 15.0 15.0 15.0 15.0 15.0 15.0 15.0 15.0
15.0 15.0 7.5 14.9 15.0 15.0 15.0 15.0 15.0 15.0 9.4 15.0 15.0 15.0 15.0 15.0 15.0 15.0 15.0 15.0 15.0 15.0 15.0 15.0 15.0 15.0 15.0 15.0 15.0 15.0 15.0 15.0 15.0 15.0 15.0 15.0 15.0 15.0 15.0 15.0 15.0 15.0 15.0 15.0 15.0 15.0 15.0 15.0 15.0 15.0 15.0 15.0 15.0 15.0
15.0 15.0 15.0 15.0 15.0 15.0 15.0 15.0 15.0 15.0 9.3 6.7 13.5 15.0 15.0 15.0 15.0 15.0 15.0 15.0 15.0 15.0 15.0 15.0 15.0 15.0 15.0 15.0 15.0 15.0 15.0 15.0 15.0 15.0 15.0 15.0 15.0 15.0 15.0 15.0 15.0 15.0 15.0 15.0 15.0 15.0 15.0 15.0 15.0 15.0 15.0 15.0 15.0 15.0
15.0 15.0 15.0 15.0 15.0 15.0 15.0 15.0 15.0 15.0 3.4 3.5 3.8 13.1 14.0 15.0 15.0 15.0 15.0 15.0 15.0 15.0 15.0 15.0 15.0 15.0 15.0 15.0 15.0 15.0 15.0 15.0 15.0 15.0 15.0 15.0 15.0 15.0 15.0 15.0 15.0 15.0 15.0 15.0 15.0 15.0 15.0 15.0 15.0 15.0 15.0 15.0 15.0 15.0
15.0 15.0 15.0 15.0 15.0 15.0 15.0 15.0 15.0 15.0 8.7 3.0 4.9 5.0 12.8 9.9 15.0 15.0 15.0 15.0 15.0 15.0 15.0 15.0 15.0 15.0 15.0 15.0 15.0 15.0 15.0 15.0 15.0 15.0 15.0 15.0 15.0 15.0 15.0 15.0 15.0 15.0 15.0 15.0 15.0 15.0 15.0 15.0 15.0 15.0 15.0 15.0 15.0 15.0
13.2 15.0 15.0 15.0 15.0 15.0 15.0 15.0 15.0 15.0 7.4 5.0 4.6 9.6 8.0 6.0 13.3 15.0 15.0 15.0 15.0 15.0 15.0 11.5 15.0 15.0 15.0 15.0 15.0 15.0 15.0 15.0 15.0 15.0 15.0 15.0 15.0 15.0 15.0 15.0 15.0 15.0 15.0 15.0 15.0 15.0 15.0 15.0 15.0 15.0 15.0 15.0 15.0 15.0
12.1 15.0 15.0 15.0 15.0 15.0 15.0 15.0 15.0 15.0 15.0 6.7 4.4 6.2 6.5 4.1 2.7 2.8 15.0 15.0 15.0 15.0 15.0 0.1 5.7 15.0 15.0 15.0 15.0 15.0 15.0 15.0 15.0 15.0 15.0 15.0 15.0 15.0 15.0 15.0 15.0 15.0 15.0 15.0 15.0 15.0 15.0 15.0 15.0 15.0 15.0 15.0 15.0 15.0
11.2 10.9 15.0 15.0 15.0 15.0 15.0 15.0 15.0 15.0 15.0 12.7 4.7 3.4 0.6 1.4 0.1 0.1 8.8 15.0 15.0 15.0 15.0 13.5 1.9 15.0 15.0 15.0 15.0 15.0 15.0 15.0 15.0 15.0 15.0 15.0 15.0 15.0 15.0 15.0 15.0 15.0 15.0 15.0 15.0 15.0 15.0 15.0 15.0 15.0 15.0 15.0 15.0 15.0
15.0 10.5 14.9 15.0 15.0 15.0 15.0 15.0 15.0 15.0 15.0 9.0 1.6 2.6 0.1 0.1 10.7 14.1 0.3 2.2 0.5 9.5 15.0 14.8 15.0 15.0 15.0 15.0 15.0 15.0 15.0 15.0 15.0 15.0 15.0 15.0 15.0 15.0 15.0 15.0 15.0 15.0 15.0 15.0 15.0 15.0 15.0 15.0 15.0 15.0 15.0 15.0 15.0 15.0
15.0 13.1 13.9 15.0 15.0 15.0 15.0 15.0 15.0 15.0 15.0 6.8 0.3 0.0 0.1 5.9 4.6 1.2 0.0 0.0 0.0 0.0 0.1 12.6 15.0 15.0 15.0 15.0 15.0 15.0 15.0 15.0 15.0 15.0 15.0 15.0 15.0 15.0 15.0 15.0 15.0 15.0 15.0 15.0 15.0 15.0 15.0 15.0 15.0 15.0 15.0 15.0 15.0 15.0
15.0 15.0 9.6 15.0 15.0 15.0 15.0 15.0 15.0 15.0 15.0 7.6 2.4 5.4 3.1 1.4 0.1 0.0 0.0 0.0 0.0 0.1 0.1 6.3 15.0 15.0 15.0 15.0 11.0 15.0 15.0 15.0 15.0 15.0 15.0 15.0 15.0 15.0 15.0 15.0 15.0 15.0 15.0 15.0 15.0 15.0 15.0 15.0 15.0 15.0 15.0 15.0 15.0 15.0
15.0 13.3 11.7 15.0 15.0 15.0 15.0 15.0 15.0 15.0 15.0 7.6 0.1 0.0 0.0 0.0 0.0 0.0 0.1 0.0 0.0 12.7 2.6 4.9 3.7 13.5 2.5 7.4 2.6 12.5 15.0 15.0 15.0 15.0 15.0 15.0 15.0 15.0 15.0 15.0 15.0 15.0 15.0 15.0 15.0 15.0 15.0 15.0 15.0 15.0 15.0 15.0 15.0 15.0
15.0 9.9 14.9 15.0 15.0 15.0 15.0 15.0 15.0 8.9 15.0 1.5 0.0 0.1 0.1 0.1 0.1 0.0 0.1 14.0 1.0 15.0 15.0 15.0 4.9 0.1 0.3 0.1 0.2 0.2 8.0 15.0 11.9 15.0 15.0 15.0 15.0 15.0 15.0 15.0 15.0 15.0 15.0 15.0 15.0 15.0 15.0 15.0 15.0 15.0 15.0 15.0 15.0 15.0
14.1 11.7 14.3 15.0 15.0 15.0 15.0 15.0 15.0 15.0 0.0 6.9 0.0 0.2 0.1 0.1 0.0 0.1 0.1 8.7 4.6 15.0 15.0 9.6 4.3 9.4 0.2 0.1 1.8 2.3 0.2 6.4 15.0 15.0 15.0 15.0 15.0 15.0 15.0 15.0 15.0 15.0 15.0 15.0 15.0 15.0 15.0 15.0 15.0 15.0 15.0 15.0 15.0 15.0
15.0 12.3 15.0 15.0 15.0 15.0 15.0 15.0 15.0 14.8 0.0 0.2 0.0 0.2 5.0 0.2 0.1 0.0 0.1 0.0 0.3 15.0 5.5 0.0 0.1 0.1 0.1 0.1 1.4 15.0 15.0 15.0 15.0 15.0 15.0 15.0 15.0 15.0 15.0 15.0 15.0 15.0 15.0 15.0 15.0 15.0 15.0 15.0 15.0 15.0 15.0 15.0 15.0 15.0
14.9 15.0 15.0 15.0 15.0 15.0 15.0 15.0 15.0 1.3 13.7 1.9 0.1 11.4 13.7 0.8 0.1 0.1 0.0 0.0 0.0 0.0 0.0 0.0 0.1 0.1 0.1 0.4 14.4 15.0 15.0 15.0 15.0 15.0 15.0 15.0 15.0 15.0 15.0 15.0 15.0 15.0 15.0 15.0 15.0 15.0 15.0 15.0 15.0 15.0 15.0 15.0 15.0 15.0
15.0 15.0 14.9 15.0 15.0 14.9 1.0 0.0 14.8 15.0 15.0 15.0 4.5 15.0 15.0 3.3 6.1 0.1 0.0 1.7 0.0 0.0 0.0 0.1 0.2 0.3 3.2 1.5 15.0 15.0 15.0 15.0 15.0 15.0 15.0 15.0 15.0 15.0 15.0 15.0 15.0 15.0 15.0 15.0 15.0 15.0 15.0 15.0 15.0 15.0 15.0 15.0 15.0 15.0
15.0 15.0 15.0 15.0 15.0 5.5 6.4 0.0 0.0 0.5 15.0 15.0 15.0 15.0 15.0 15.0 15.0 15.0 15.0 15.0 15.0 6.9 0.1 0.1 0.7 6.7 15.0 15.0 15.0 15.0 15.0 15.0 15.0 15.0 15.0 15.0 15.0 15.0 15.0 15.0 15.0 15.0 15.0 15.0 15.0 15.0 15.0 15.0 15.0 15.0 15.0 15.0 15.0 15.0
13.7 13.6 10.1 9.6 15.0 4.3 4.7 0.8 1.1 14.1 15.0 15.0 1.4 1.6 14.9 15.0 15.0 15.0 15.0 15.0 11.2 0.1 0.1 11.7 15.0 15.0 15.0 15.0 15.0 15.0 15.0 15.0 15.0 15.0 15.0 15.0 15.0 15.0 15.0 15.0 15.0 15.0 15.0 15.0 15.0 15.0 15.0 15.0 15.0 15.0 15.0 15.0 15.0 15.0
0.8 0.5 7.0 13.0 0.1 15.0 14.8 1.5 13.8 14.9 3.8 13.3 15.0 14.9 1.3 15.0 15.0 15.0 15.0 15.0 15.0 15.0 15.0 15.0 15.0 15.0 15.0 15.0 15.0 15.0 15.0 15.0 15.0 15.0 15.0 15.0 15.0 15.0 15.0 15.0 15.0 15.0 15.0 15.0 15.0 15.0 15.0 15.0 15.0 15.0 15.0 15.0 15.0 15.0
0.0 6.6 0.0 1.7 15.0 1.5 15.0 15.0 6.2 3.8 15.0 15.0 12.7 10.5 5.8 14.2 15.0 15.0 15.0 13.8 15.0 15.0 15.0 15.0 15.0 15.0 15.0 15.0 15.0 15.0 15.0 15.0 15.0 15.0 15.0 15.0 15.0 15.0 15.0 15.0 15.0 15.0 15.0 15.0 15.0 15.0 15.0 15.0 15.0 15.0 15.0 11.4 14.0 15.0
0.0 0.1 0.1 0.3 13.0 15.0 12.4 10.8 15.0 11.9 6.2 9.6 9.2 10.7 5.8 5.9 13.5 6.8 0.3 12.0 15.0 15.0 15.0 15.0 15.0 15.0 15.0 15.0 15.0 15.0 15.0 15.0 15.0 15.0 15.0 15.0 15.0 15.0 15.0 15.0 15.0 15.0 15.0 15.0 15.0 15.0 15.0 12.0 3.5 15.0 15.0 6.9 8.4 3.7
15.0 6.7 10.9 15.0 15.0 3.1 0.6 0.4 0.7 0.4 0.8 0.6 1.1 3.6 3.4 4.0 3.3 1.0 0.7 15.0 15.0 15.0 15.0 15.0 15.0 15.0 15.0 15.0 15.0 15.0 15.0 15.0 15.0 15.0 15.0 15.0 15.0 15.0 15.0 15.0 15.0 15.0 15.0 15.0 15.0 15.0 15.0 15.0 13.7 13.5 12.4 3.7 4.7 9.5
15.0 14.9 7.8 1.4 1.6 0.7 0.6 0.5 0.5 0.6 2.3 1.4 0.9 1.8 7.5 3.7 0.9 2.8 15.0 15.0 15.0 15.0 15.0 15.0 15.0 15.0 15.0 15.0 15.0 15.0 15.0 15.0 15.0 15.0 15.0 15.0 15.0 15.0 15.0 15.0 15.0 15.0 15.0 15.0 15.0 15.0 15.0 15.0 15.0 15.0 15.0 15.0 15.0 15.0
5.4 2.6 0.9 0.3 0.6 5.5 8.6 2.5 1.1 4.1 11.4 2.9 3.3 8.9 3.3 1.9 1.2 13.5 15.0 15.0 15.0 15.0 15.0 15.0 15.0 15.0 15.0 15.0 15.0 15.0 15.0 15.0 15.0 15.0 15.0 15.0 15.0 15.0 15.0 15.0 15.0 15.0 15.0 15.0 15.0 15.0 15.0 15.0 15.0 15.0 15.0 15.0 15.0 15.0
0.2 1.0 2.9 15.0 15.0 13.0 7.5 7.9 11.6 4.3 2.1 1.8 1.2 1.0 0.3 0.3 13.4 15.0 15.0 15.0 15.0 15.0 15.0 13.9 1.2 1.0 2.4 7.2 9.3 15.0 15.0 15.0 15.0 15.0 15.0 15.0 15.0 15.0 15.0 15.0 15.0 15.0 15.0 15.0 15.0 15.0 15.0 4.9 4.5 15.0 15.0 15.0 15.0 15.0
0.1 0.4 0.1 0.2 0.1 0.2 0.1 0.5 0.6 4.8 14.8 2.0 1.2 1.7 2.3 14.9 15.0 15.0 15.0 15.0 15.0 15.0 0.3 0.2 0.2 0.2 0.2 0.2 0.3 3.2 15.0 15.0 15.0 15.0 15.0 15.0 15.0 15.0 15.0 15.0 15.0 15.0 15.0 15.0 9.1 13.3 14.0 15.0 15.0 15.0 15.0 15.0 15.0 15.0
0.2 0.3 0.3 0.1 0.1 0.1 0.2 0.4 1.2 3.0 3.2 0.9 0.4 2.2 3.7 15.0 15.0 14.3 1.8 15.0 15.0 15.0 8.9 0.1 0.1 0.1 0.1 0.1 0.2 6.9 3.0 15.0 14.4 15.0 15.0 15.0 15.0 15.0 15.0 15.0 15.0 15.0 15.0 15.0 15.0 15.0 15.0 15.0 15.0 15.0 15.0 15.0 15.0 15.0
2.7 9.3 0.4 0.2 0.2 0.3 0.2 0.2 0.2 0.2 0.2 0.2 0.2 1.5 12.6 15.0 4.2 0.4 15.0 15.0 14.5 15.0 15.0 6.9 15.0 15.0 6.4 15.0 15.0 15.0 15.0 10.0 7.2 15.0 15.0 15.0 15.0 15.0 15.0 15.0 15.0 15.0 15.0 15.0 15.0 15.0 15.0 15.0 15.0 15.0 15.0 13.4 15.0 15.0
13.9 11.0 4.7 4.7 2.0 0.4 0.4 0.5 0.6 3.9 0.1 0.1 0.1 0.2 0.7 0.3 0.1 0.1 1.0 12.6 15.0 15.0 15.0 15.0 15.0 15.0 15.0 15.0 15.0 15.0 15.0 15.0 15.0 15.0 15.0 15.0 15.0 15.0 15.0 15.0 15.0 15.0 15.0 15.0 15.0 15.0 14.1 6.6 6.2 6.1 8.4 6.8 10.2 14.3
14.8 0.3 3.9 1.2 15.0 15.0 15.0 15.0 15.0 15.0 14.4 0.3 0.1 0.1 0.1 0.1 0.6 15.0 15.0 9.4 15.0 15.0 9.0 11.4 9.3 2.8 2.2 13.2 15.0 15.0 15.0 15.0 15.0 15.0 15.0 15.0 15.0 15.0 15.0 15.0 15.0 15.0 15.0 15.0 14.9 5.9 4.9 4.6 4.7 4.7 10.2 4.7 5.5 15.0
13.5 7.7 5.8 8.5 15.0 15.0 15.0 8.5 15.0 15.0 15.0 15.0 15.0 6.5 3.2 4.4 15.0 15.0 15.0 5.3 1.2 1.3 1.2 2.5 11.5 15.0 10.5 9.8 9.5 10.8 15.0 15.0 15.0 15.0 15.0 15.0 15.0 15.0 15.0 14.2 15.0 15.0 15.0 15.0 15.0 4.8 4.2 4.1 4.2 4.0 4.7 15.0 15.0 15.0